Regional Weather Roundup
Issued by NWS

Home | Current Version | Previous Version | Text Only | Print | Product List | Glossary On
Versions: 1 2 3 4 5 6 7 8 9 10 11 12 13 14 15 16 17 18 19 20 21 22 23 24 25 26 27 28 29 30 31 32 33 34 35 36 37 38 39 40 41 42 43 44 45 46 47 48 49 50
942
ASUS44 KJAN 210003
RWRMS

MISSISSIPPI HOURLY WEATHER ROUNDUP
NATIONAL WEATHER SERVICE JACKSON MS
700 PM CDT MON OCT 20 2014

NOTE: "FAIR: INDICATES FEW OR NO CLOUDS BELOW 12,000 FEET WITH NO
SIGNIFICANT WEATHER AND/OR OBSTRUCTIONS TO VISIBILITY.

MSZ001>002-007>008-010>013-018>021-025>028-034>036-210100-
NORTHWEST MISSISSIPPI

CITY           SKY/WX    TMP DP  RH WIND       PRES   REMARKS
CLARKSDALE     FAIR      64  54  68 CALM      30.03S
CLEVELAND      FAIR      65  58  77 W3        30.02S
GREENWOOD      CLEAR     61  53  75 NE3       30.03R
6HR MIN TEMP:  60; 6HR MAX TEMP:  75;

GREENVILLE     CLEAR     64  53  67 CALM      30.03R
6HR MIN TEMP:  64; 6HR MAX TEMP:  74;

GRENADA          N/A    N/A N/A N/A MISG        N/A
OLIVE BRANCH   CLEAR     63  55  77 CALM      30.02R
OXFORD         FAIR      57  54  88 CALM      30.04R
TUNICA         CLEAR     61  54  77 CALM      30.03R
$$

MSZ003>006-009-014>017-022>024-029>033-037>039-210100-
NORTHEAST MISSISSIPPI

CITY           SKY/WX    TMP DP  RH WIND       PRES   REMARKS
COLUMBUS AFB   NOT AVBL
CORINTH        FAIR      59  52  77 CALM      30.01S
GOLDN TRIANGLE CLEAR     66  48  52 CALM      30.02R
STARKVILLE     FAIR      59  54  82 CALM      30.03R
TUPELO         CLEAR     63  52  67 NW3       30.02R
6HR MIN TEMP:  63; 6HR MAX TEMP:  73;

$$

MSZ040-058-210100-
CENTRAL MISSISSIPPI

CITY           SKY/WX    TMP DP  RH WIND       PRES   REMARKS
JACKSON INTL   PTCLDY    63  52  67 N3        30.03R
6HR MIN TEMP:  63; 6HR MAX TEMP:  77;

JACKSON HAWKNS CLEAR     69  48  47 NW3       30.03R
6HR MIN TEMP:  69; 6HR MAX TEMP:  77;

MERIDIAN KEY   CLEAR     61  54  77 CALM      30.02R
6HR MIN TEMP:  61; 6HR MAX TEMP:  76;

MERIDIAN NAS   PTCLDY    64  52  64 CALM      30.03R
6HR MIN TEMP:  64; 6HR MAX TEMP:  75;

RAYMOND        FAIR      61  57  88 MISG      30.03R
VICKSBURG      CLEAR     59  54  83 CALM      30.03R
6HR MIN TEMP:  59; 6HR MAX TEMP:  76;

$$

MSZ059>079-210100-
SOUTH MISSISSIPPI

CITY           SKY/WX    TMP DP  RH WIND       PRES   REMARKS
BROOKHAVEN     FAIR      63  54  72 CALM      30.04R
COLUMBIA         N/A    N/A N/A N/A MISG        N/A
HATTIESBURG    PTCLDY    63  55  75 CALM      30.02R
6HR MIN TEMP:  63; 6HR MAX TEMP:  77;

MCCOMB         MOCLDY    64  53  67 CALM      30.02R
6HR MIN TEMP:  64; 6HR MAX TEMP:  76;

NATCHEZ        CLEAR     64  55  72 CALM      30.04R
6HR MIN TEMP:  64; 6HR MAX TEMP:  73;

PINE BELT      PTCLDY    61  54  77 CALM      30.03S
6HR MIN TEMP:  61; 6HR MAX TEMP:  75;

$$

MSZ080>082-210100-
COASTAL MISSISSIPPI

CITY           SKY/WX    TMP DP  RH WIND       PRES   REMARKS
BAY ST LOUIS   CLEAR     63  55  77 CALM      30.01R
BILOXI         PTCLDY    71  57  61 CALM      30.00R
6HR MIN TEMP:  71; 6HR MAX TEMP:  80;

PASCAGOULA     CLEAR     60  55  83 CALM      30.00R
6HR MIN TEMP:  59; 6HR MAX TEMP:  81;

GULFPORT       PTCLDY    67  54  63 CALM      29.99R
6HR MIN TEMP:  67; 6HR MAX TEMP:  80;

$$



USA.gov is the U.S. government's official web portal to all federal, state and local government web resources and services.